EW1979 Weather Reports


Display with metric or nautical units.
time (UTC)temp
F
wind
direction
speed
MPH
gust
MPH
rain 1hr
in
rain 24hr
in
rain mn
in
humidity
%
barometer
mb
20260504024516 65 163 0.0 0.0 0.00 0.00 0.00 58 1014.5
20260504023006 65 163 0.0 0.0 0.00 0.00 0.00 57 1014.3
20260504020104 66 163 0.0 0.0 0.00 0.00 0.00 55 1014.4
20260504014603 66 163 0.0 0.0 0.00 0.00 0.00 55 1014.4
20260504013003 67 163 0.0 0.0 0.00 0.00 0.00 54 1014.3
20260504011504 67 163 0.0 0.0 0.00 0.00 0.00 53 1014.0
20260504004623 69 163 0.0 0.0 0.00 0.00 0.00 50 1014.2
20260504003003 70 159 0.0 0.0 0.00 0.00 0.00 49 1014.1
20260504001608 70 162 0.0 0.0 0.00 0.00 0.00 45 1014.3
20260504000003 71 142 0.0 0.0 0.00 0.00 0.00 44 1014.6
20260503234503 71 148 0.0 0.0 0.00 0.00 0.00 43 1014.6
20260503233103 72 178 0.0 0.0 0.00 0.00 0.00 42 1014.6
20260503231603 73 202 0.0 0.0 0.00 0.00 0.00 40 1014.7
20260503230115 73 184 0.0 0.0 0.00 0.00 0.00 41 1014.6
20260503224602 73 161 0.0 0.0 0.00 0.00 0.00 40 1014.9
20260503223006 74 113 0.0 0.0 0.00 0.00 0.00 41 1014.8
20260503220104 74 167 0.0 0.0 0.00 0.00 0.00 36 1015.2
20260503214504 73 156 0.0 0.0 0.00 0.00 0.00 38 1015.5
20260503213104 74 186 0.0 0.0 0.00 0.00 0.00 39 1015.9
20260503210008 74 148 0.0 0.0 0.00 0.00 0.00 36 1016.2
20260503204603 74 165 0.0 0.0 0.00 0.00 0.00 37 1016.5
20260503203006 74 182 0.0 0.0 0.00 0.00 0.00 39 1016.8
20260503201603 74 207 0.0 0.0 0.00 0.00 0.00 41 1017.0
20260503200007 74 165 0.0 0.0 0.00 0.00 0.00 42 1017.2
20260503194604 73 113 0.0 0.0 0.00 0.00 0.00 42 1017.3
20260503193011 73 202 0.0 0.0 0.00 0.00 0.00 37 1017.6
20260503191605 73 186 0.0 0.0 0.00 0.00 0.00 41 1017.8
20260503184609 72 186 0.0 0.0 0.00 0.00 0.00 44 1018.1
20260503181505 71 135 0.0 0.0 0.00 0.00 0.00 45 1019.0
20260503174620 70 172 0.0 0.0 0.00 0.00 0.00 51 1019.6
20260503173010 70 161 0.0 0.0 0.00 0.00 0.00 49 1019.9
20260503150105 66 164 0.0 0.0 0.00 0.00 0.00 58 1021.0
20260503110104 56 84 0.0 0.0 0.00 0.00 0.00 72 1018.9
20260503090105 58 84 0.0 0.0 0.00 0.00 0.00 69 1018.5
20260503081502 57 84 0.0 0.0 0.00 0.00 0.00 69 1018.6
20260503054507 58 83 0.0 0.0 0.00 0.00 0.00 67 1019.8
20260503044606 59 83 0.0 0.0 0.00 0.00 0.00 66 1019.7
20260503041603 58 82 0.0 0.0 0.00 0.00 0.00 66 1019.8
20260503040004 59 82 0.0 0.0 0.00 0.00 0.00 66 1019.8
20260503034534 58 82 0.0 0.0 0.00 0.00 0.00 66 1019.7